Dirección General De Aeronáutica Civil

Dirección Meteorológica de Chile - Servicios Climáticos

Informe General de Control de Calidad de la Estación

Listado de niveles de control de calidad para algunos parámetros
Estación Antártica, Bahía Fildes Gobernación Marítima (950006)
Fecha de Revisión de los datos :

Elementos

Registros Niveles de Control Total
Nivel 0 Nivel 1 Nivel 2 Nivel 3 Errores Porcentaje
01 Temperatura del Aire Seco 12.834 0 . 0 . 0 . 0 . 0 0.00 %
02 Temperatura de Rocío 12.830 0 . 0 . 0 . 0 . 0 0.00 %
03 Humedad Relativa del Aire 12.830 0 . 0 . 0 . 0 . 0 0.00 %
04 Temperatura Máxima PM 1.607 0 . 0 . 32 1.99 % 0 . 32 1.99 %
05 Temperatura Mínima AM 1.605 0 . 0 . 24 1.50 % 0 . 24 1.50 %
06 Viento a 10 m. de Altura 12.833 2 0.02 % 23 0.18 % 4 0.03 % 0 . 29 0.23 %
07 Agua Caida, Acumulada 6 Horas 6.330 0 . 507 8.01 % 0 . 0 . 507 8.01 %
08 Presión Atm. a Nivel Medio del Mar (QFF) 12.829 0 . 0 . 0 . 0 . 0 0.00 %
09 Tiempo Pasado Sinóptico 12.817 0 . 0 . 0 . 0 . 0 0.00 %
10 Tiempo Presente Sinóptico 12.823 0 . 37 0.29 % 0 . 0 . 37 0.29 %

Totales

99.338 . 0.0020 % . 0.5708 % . 0.0604 % . 0.0000 % 629 0.6332 %

Detalle de Errores Encontrados

Nivel Fecha del Dato Descripción Información Error Fecha Ingreso
0 2018-05-20 03:00:00 ff (Intensidad del Viento) debe ser numerico, entre 0 y 70 kt. 101.40000152588 2018-05-22 21:33:00
0 2022-05-21 15:00:00 ff (Intensidad del Viento) debe ser numerico, entre 0 y 70 kt. 113 2022-05-21 19:20:00
Errores del Nivel 2
Nivel Fecha del Dato Descripción Información Error Fecha Ingreso
1 2017-12-19 18:00:00 rrr = 0.1 y WW = 10 w1=2 w2=2 0.1 2017-12-19 18:05:00
1 2017-12-21 06:00:00 rrr = trazas y WW = 10 w1=2 w2=2 0.0 2017-12-21 12:38:00
1 2017-12-22 18:00:00 rrr = s/p y WW = 10 w1=5 w2=2 0.0 2017-12-22 21:18:00
1 2017-12-23 12:00:00 rrr = trazas y WW = 2 w1=2 w2=2 0.0 2017-12-23 12:23:00
1 2018-01-01 18:00:00 rrr = 0.4 y WW = 1 w1=2 w2=2 0.4 2018-01-02 01:02:00
1 2018-01-01 18:00:00 rrr = 0.4 y WW = 1 w1=2 w2=2 0.4 2018-01-02 01:02:00
1 2018-01-04 12:00:00 rrr = 0.6 y WW = 2 w1=2 w2=2 0.6 2018-01-04 14:54:00
1 2018-01-04 18:00:00 rrr = 0.7 y WW = 3 w1=2 w2=2 0.7 2018-01-05 14:03:00
1 2018-01-10 18:00:00 rrr = 0.3 y WW = 10 w1=4 w2=4 0.3 2018-01-11 15:35:00
1 2018-01-13 12:00:00 rrr = 1.0 y WW = 2 w1=2 w2=2 1.0 2018-01-14 19:12:00
1 2018-01-18 12:00:00 rrr = s/p y WW = 20 w1=2 w2=2 0.0 2018-01-20 14:45:00
1 2018-01-22 12:00:00 rrr = 0.5 y WW = 10 w1=2 w2=2 0.5 2018-01-22 13:53:00
1 2018-01-24 06:00:00 rrr = trazas y WW = 10 w1=2 w2=2 0.0 2018-01-24 12:59:00
1 2018-01-25 12:00:00 rrr = 0.1 y WW = 10 w1=2 w2=2 0.1 2018-01-25 13:06:00
1 2018-01-29 18:00:00 rrr = 0.1 y WW = 2 w1=2 w2=2 0.1 2018-01-31 19:13:00
1 2018-01-30 06:00:00 rrr = 0.1 y WW = 2 w1=2 w2=2 0.1 2018-01-30 19:48:00
1 2018-01-30 12:00:00 rrr = 0.1 y WW = 3 w1=2 w2=2 0.1 2018-01-30 19:46:00
1 2018-01-30 18:00:00 rrr = trazas y WW = 36 w1=2 w2=2 0.0 2018-01-30 17:37:00
1 2018-01-31 00:00:00 rrr = 1.5 y WW = 3 w1=3 w2=2 1.5 2018-01-31 14:33:00
1 2018-01-31 12:00:00 rrr = 0.7 y WW = 2 w1=3 w2=2 0.7 2018-01-31 19:32:00
1 2018-02-09 12:00:00 rrr = 0.1 y WW = 2 w1=3 w2=2 0.1 2018-02-12 12:55:00
1 2018-02-13 12:00:00 rrr = 0.1 y WW = 10 w1=2 w2=2 0.1 2018-02-14 14:51:00
1 2018-02-15 00:00:00 rrr = trazas y WW = 2 w1=2 w2=2 0.0 2018-02-15 03:29:00
1 2018-02-27 06:00:00 rrr = 0.6 y WW = 2 w1=0 w2=0 0.6 2018-02-27 06:38:00
1 2018-02-28 12:00:00 rrr = 0.1 y WW = 2 w1=2 w2=2 0.1 2018-02-28 13:27:00
1 2018-03-02 18:00:00 rrr = trazas y WW = 10 w1=3 w2=2 0.0 2018-03-04 12:56:00
1 2018-03-04 18:00:00 rrr = trazas y WW = 2 w1=2 w2=2 0.0 2018-03-04 18:55:00
1 2018-03-05 18:00:00 rrr = trazas y WW = 37 w1=3 w2=2 0.0 2018-03-06 12:32:00
1 2018-03-06 00:00:00 rrr = 0.1 y WW = 10 w1=3 w2=2 0.1 2018-03-06 12:44:00
1 2018-03-06 06:00:00 rrr = trazas y WW = 10 w1=2 w2=2 0.0 2018-03-06 13:07:00
1 2018-03-06 12:00:00 rrr = trazas y WW = 37 w1=2 w2=2 0.0 2018-03-06 13:17:00
1 2018-03-06 18:00:00 rrr = trazas y WW = 37 w1=3 w2=3 0.0 2018-03-06 18:50:00
1 2018-03-07 00:00:00 rrr = trazas y WW = 2 w1=3 w2=3 0.0 2018-03-07 13:04:00
1 2018-03-13 12:00:00 rrr = s/p y WW = 42 w1=5 w2=2 0.0 2018-03-13 13:30:00
1 2018-03-14 12:00:00 rrr = s/p y WW = 2 w1=5 w2=2 0.0 2018-03-14 15:02:00
1 2018-03-15 18:00:00 rrr = trazas y WW = 2 w1=2 w2=2 0.0 2018-03-16 16:40:00
1 2018-03-22 06:00:00 rrr = s/p y WW = 2 w1=6 w2=2 0.0 2018-03-25 18:58:00
1 2018-03-29 06:00:00 rrr = 2.0 y WW = 2 w1=2 w2=2 2.0 2018-03-29 22:15:00
1 2018-04-03 12:00:00 rrr = s/p y WW = 22 w1=2 w2=2 0.0 2018-04-05 03:56:00
1 2018-04-10 18:00:00 rrr = trazas y WW = 37 w1=3 w2=3 0.0 2018-04-11 06:07:00
1 2018-04-11 00:00:00 rrr = trazas y WW = 36 w1=3 w2=3 0.0 2018-04-11 06:11:00
1 2018-04-11 06:00:00 rrr = trazas y WW = 36 w1=3 w2=3 0.0 2018-04-11 06:14:00
1 2018-04-11 12:00:00 rrr = 0.2 y WW = 37 w1=3 w2=3 0.2 2018-04-11 11:59:00
1 2018-04-11 18:00:00 rrr = trazas y WW = 37 w1=3 w2=3 0.0 2018-04-13 11:53:00
1 2018-04-12 00:00:00 rrr = trazas y WW = 37 w1=3 w2=3 0.0 2018-04-13 11:57:00
1 2018-04-12 06:00:00 rrr = trazas y WW = 37 w1=3 w2=3 0.0 2018-04-13 12:01:00
1 2018-04-12 12:00:00 rrr = 0.1 y WW = 2 w1=3 w2=3 0.1 2018-04-13 12:06:00
1 2018-04-16 00:00:00 rrr = trazas y WW = 2 w1=2 w2=2 0.0 2018-04-16 19:20:00
1 2018-04-16 06:00:00 rrr = trazas y WW = 1 w1=2 w2=1 0.0 2018-04-16 19:29:00
1 2018-04-16 18:00:00 rrr = trazas y WW = 1 w1=1 w2=0 0.0 2018-04-16 19:38:00
1 2018-04-20 12:00:00 rrr = trazas y WW = 2 w1=2 w2=2 0.0 2018-04-20 19:13:00
1 2018-04-21 06:00:00 rrr = 2.0 y WW = 10 w1=2 w2=2 2.0 2018-04-23 12:34:00
1 2018-04-22 12:00:00 rrr = trazas y WW = 37 w1=2 w2=2 0.0 2018-04-23 13:06:00
1 2018-04-22 18:00:00 rrr = trazas y WW = 37 w1=3 w2=3 0.0 2018-04-23 13:16:00
1 2018-04-30 18:00:00 rrr = 0.6 y WW = 10 w1=2 w2=1 0.6 2018-05-02 15:29:00
1 2018-05-03 18:00:00 rrr = s/p y WW = 3 w1=8 w2=1 0.0 2018-05-03 18:22:00
1 2018-05-08 18:00:00 rrr = trazas y WW = 37 w1=2 w2=2 0.0 2018-05-10 15:01:00
1 2018-05-24 00:00:00 rrr = trazas y WW = 10 w1=2 w2=2 0.0 2018-05-24 04:36:00
1 2018-05-26 06:00:00 rrr = 0.1 y WW = 1 w1=2 w2=1 0.1 2018-05-26 19:34:00
1 2018-05-30 12:00:00 rrr = s/p y WW = 2 w1=7 w2=2 0.0 2018-05-31 13:36:00
1 2018-05-31 00:00:00 rrr = 0.3 y WW = 2 w1=3 w2=1 0.3 2018-05-31 13:46:00
1 2018-06-02 18:00:00 rrr = s/p y WW = 71 w1=2 w2=2 0.0 2018-06-04 20:43:00
1 2018-06-06 12:00:00 rrr = s/p y WW = 2 w1=5 w2=2 0.0 2018-06-07 23:01:00
1 2018-06-08 12:00:00 rrr = s/p y WW = 2 w1=5 w2=2 0.0 2018-06-10 13:28:00
1 2018-06-10 00:00:00 rrr = s/p y WW = 20 w1=2 w2=2 0.0 2018-06-10 18:00:00
1 2018-06-14 12:00:00 rrr = trazas y WW = 2 w1=2 w2=2 0.0 2018-06-16 15:15:00
1 2018-06-17 00:00:00 rrr = trazas y WW = 3 w1=2 w2=1 0.0 2018-06-17 01:16:00
1 2018-06-19 18:00:00 rrr = trazas y WW = 38 w1=2 w2=2 0.0 2018-06-19 19:54:00
1 2018-06-20 18:00:00 rrr = trazas y WW = 38 w1=3 w2=2 0.0 2018-06-20 18:52:00
1 2018-06-21 00:00:00 rrr = trazas y WW = 38 w1=3 w2=3 0.0 2018-06-21 14:39:00
1 2018-06-21 06:00:00 rrr = trazas y WW = 38 w1=3 w2=3 0.0 2018-06-21 14:43:00
1 2018-06-21 12:00:00 rrr = trazas y WW = 38 w1=3 w2=3 0.0 2018-06-21 14:48:00
1 2018-06-25 00:00:00 rrr = trazas y WW = 2 w1=2 w2=2 0.0 2018-06-25 17:34:00
1 2018-06-25 06:00:00 rrr = trazas y WW = 38 w1=2 w2=2 0.0 2018-06-25 17:37:00
1 2018-06-25 12:00:00 rrr = trazas y WW = 1 w1=3 w2=2 0.0 2018-06-25 17:41:00
1 2018-06-25 18:00:00 rrr = trazas y WW = 3 w1=2 w2=1 0.0 2018-06-27 17:19:00
1 2018-06-26 00:00:00 rrr = trazas y WW = 10 w1=2 w2=2 0.0 2018-06-27 17:25:00
1 2018-06-27 12:00:00 rrr = trazas y WW = 3 w1=2 w2=2 0.0 2018-06-27 18:19:00
1 2018-07-01 18:00:00 rrr = 1.8 y WW = 38 w1=3 w2=2 1.8 2018-07-03 23:09:00
1 2018-07-04 18:00:00 rrr = trazas y WW = 2 w1=2 w2=2 0.0 2018-07-04 18:42:00
1 2018-07-05 12:00:00 rrr = trazas y WW = 10 w1=2 w2=2 0.0 2018-07-05 14:10:00
1 2018-07-07 00:00:00 rrr = trazas y WW = 2 w1=2 w2=2 0.0 2018-07-08 17:21:00
1 2018-07-07 06:00:00 rrr = trazas y WW = 1 w1=2 w2=1 0.0 2018-07-08 17:25:00
1 2018-07-08 00:00:00 rrr = trazas y WW = 2 w1=2 w2=2 0.0 2018-07-08 17:36:00
1 2018-07-08 06:00:00 rrr = trazas y WW = 2 w1=2 w2=2 0.0 2018-07-08 17:39:00
1 2018-07-08 12:00:00 rrr = trazas y WW = 1 w1=2 w2=2 0.0 2018-07-08 17:44:00
1 2018-07-11 06:00:00 rrr = trazas y WW = 2 w1=2 w2=2 0.0 2018-07-11 18:53:00
1 2018-07-11 12:00:00 rrr = trazas y WW = 1 w1=2 w2=2 0.0 2018-07-11 19:09:00
1 2020-01-21 12:00:00 rrr = trazas y WW = 2 w1=2 w2=2 0.0 2020-01-21 12:01:00
1 2020-01-21 18:00:00 rrr = trazas y WW = 2 w1=2 w2=2 0.0 2020-01-21 18:01:00
1 2020-01-23 00:00:00 rrr = trazas y WW = 2 w1=4 w2=2 0.0 2020-01-22 23:59:00
1 2020-01-27 18:00:00 rrr = s/p y WW = 10 w1=5 w2=1 0.0 2020-01-27 17:54:00
1 2020-01-30 00:00:00 rrr = 0.1 y WW = 2 w1=2 w2=2 0.1 2020-01-30 00:02:00
1 2020-02-11 00:00:00 rrr = s/p y WW = 10 w1=6 w2=2 0.0 2020-02-11 00:00:00
1 2020-03-06 18:00:00 rrr = 0.1 y WW = 2 w1=4 w2=4 0.1 2020-03-06 17:49:00
1 2020-03-19 06:00:00 rrr = trazas y WW = 2 w1=2 w2=2 0.0 2020-03-19 05:41:00
1 2020-03-20 18:00:00 rrr = 1.0 y WW = 38 w1=3 w2=2 1.0 2020-03-20 18:07:00
1 2020-03-21 00:00:00 rrr = trazas y WW = 1 w1=3 w2=3 0.0 2020-03-21 00:05:00
1 2020-03-21 18:00:00 rrr = s/p y WW = 2 w1=7 w2=2 0.0 2020-03-21 17:55:00
1 2020-03-24 12:00:00 rrr = 4.0 y WW = 2 w1=3 w2=3 4.0 2020-03-24 11:51:00
1 2020-03-30 18:00:00 rrr = trazas y WW = 3 w1=4 w2=1 0.0 2020-03-30 17:49:00
1 2020-03-31 12:00:00 rrr = s/p y WW = 22 w1=7 w2=2 0.0 2020-03-31 12:01:00
1 2020-03-31 18:00:00 rrr = s/p y WW = 70 w1=7 w2=2 0.0 2020-03-31 17:53:00
1 2020-04-01 00:00:00 rrr = trazas y WW = 2 w1=2 w2=2 0.0 2020-03-31 23:55:00
1 2020-04-04 18:00:00 rrr = trazas y WW = 2 w1=2 w2=2 0.0 2020-04-04 17:41:00
1 2020-04-05 06:00:00 rrr = 1.2 y WW = 1 w1=2 w2=2 1.2 2020-04-05 05:46:00
1 2020-04-05 12:00:00 rrr = trazas y WW = 3 w1=2 w2=2 0.0 2020-04-05 12:06:00
1 2020-04-06 06:00:00 rrr = s/p y WW = 2 w1=7 w2=2 0.0 2020-04-06 06:01:00
1 2020-04-07 06:00:00 rrr = 1.0 y WW = 3 w1=1 w2=1 1.0 2020-04-07 05:50:00
1 2020-04-09 12:00:00 rrr = 0.3 y WW = 2 w1=2 w2=2 0.3 2020-04-09 12:16:00
1 2020-04-11 18:00:00 rrr = s/p y WW = 3 w1=7 w2=2 0.0 2020-04-11 17:51:00
1 2020-04-15 00:00:00 rrr = s/p y WW = 3 w1=8 w2=2 0.0 2020-04-14 23:53:00
1 2020-04-17 06:00:00 rrr = s/p y WW = 50 w1=5 w2=2 0.0 2020-04-17 05:52:00
1 2020-04-22 00:00:00 rrr = s/p y WW = 70 w1=7 w2=7 0.0 2020-04-21 23:58:00
1 2020-04-22 06:00:00 rrr = s/p y WW = 70 w1=7 w2=7 0.0 2020-04-22 06:01:00
1 2020-04-23 00:00:00 rrr = s/p y WW = 1 w1=7 w2=1 0.0 2020-04-22 23:57:00
1 2020-04-23 06:00:00 rrr = 2.0 y WW = 2 w1=2 w2=2 2.0 2020-04-23 05:48:00
1 2020-04-27 00:00:00 rrr = s/p y WW = 71 w1=2 w2=2 0.0 2020-04-26 23:58:00
1 2020-04-28 06:00:00 rrr = trazas y WW = 2 w1=2 w2=2 0.0 2020-04-28 05:46:00
1 2020-04-28 18:00:00 rrr = s/p y WW = 71 w1=2 w2=1 0.0 2020-04-28 17:45:00
1 2020-04-29 00:00:00 rrr = s/p y WW = 1 w1=7 w2=1 0.0 2020-04-28 23:35:00
1 2020-04-29 18:00:00 rrr = s/p y WW = 22 w1=2 w2=1 0.0 2020-04-29 17:57:00
1 2020-05-01 06:00:00 rrr = s/p y WW = 1 w1=6 w2=6 0.0 2020-05-01 05:48:00
1 2020-05-02 12:00:00 rrr = s/p y WW = 71 w1=7 w2=2 0.0 2020-05-02 11:58:00
1 2020-05-12 18:00:00 rrr = s/p y WW = 22 w1=2 w2=2 0.0 2020-05-12 17:50:00
1 2020-05-13 00:00:00 rrr = s/p y WW = 36 w1=7 w2=7 0.0 2020-05-12 23:51:00
1 2020-05-13 06:00:00 rrr = s/p y WW = 1 w1=7 w2=7 0.0 2020-05-13 05:46:00
1 2020-05-20 12:00:00 rrr = s/p y WW = 22 w1=2 w2=2 0.0 2020-05-20 12:03:00
1 2020-05-22 12:00:00 rrr = s/p y WW = 3 w1=7 w2=2 0.0 2020-05-22 12:03:00
1 2020-05-23 12:00:00 rrr = s/p y WW = 2 w1=7 w2=2 0.0 2020-05-23 11:55:00
1 2020-05-28 06:00:00 rrr = trazas y WW = 10 w1=2 w2=2 0.0 2020-05-28 05:44:00
1 2020-05-28 18:00:00 rrr = trazas y WW = 2 w1=2 w2=2 0.0 2020-05-28 17:57:00
1 2020-06-03 12:00:00 rrr = s/p y WW = 1 w1=7 w2=2 0.0 2020-06-03 11:49:00
1 2020-06-04 12:00:00 rrr = s/p y WW = 2 w1=7 w2=2 0.0 2020-06-04 11:47:00
1 2020-06-04 18:00:00 rrr = 1.0 y WW = 1 w1=2 w2=1 1.0 2020-06-04 17:52:00
1 2020-06-09 06:00:00 rrr = trazas y WW = 2 w1=2 w2=2 0.0 2020-06-09 05:56:00
1 2020-06-14 12:00:00 rrr = trazas y WW = 3 w1=2 w2=2 0.0 2020-06-14 11:52:00
1 2020-06-20 06:00:00 rrr = s/p y WW = 70 w1=7 w2=2 0.0 2020-06-20 05:48:00
1 2020-06-21 06:00:00 rrr = s/p y WW = 26 w1=7 w2=2 0.0 2020-06-21 05:53:00
1 2020-06-24 00:00:00 rrr = s/p y WW = 2 w1=7 w2=2 0.0 2020-06-23 23:49:00
1 2020-06-27 00:00:00 rrr = s/p y WW = 27 w1=2 w2=1 0.0 2020-06-26 23:53:00
1 2020-07-03 12:00:00 rrr = s/p y WW = 2 w1=7 w2=2 0.0 2020-07-03 12:00:00
1 2020-07-09 00:00:00 rrr = 1.0 y WW = 1 w1=2 w2=2 1.0 2020-07-08 23:56:00
1 2020-07-12 06:00:00 rrr = trazas y WW = 2 w1=2 w2=2 0.0 2020-07-12 05:42:00
1 2020-07-13 12:00:00 rrr = s/p y WW = 73 w1=4 w2=2 0.0 2020-07-13 11:54:00
1 2020-07-13 18:00:00 rrr = trazas y WW = 2 w1=2 w2=2 0.0 2020-07-13 17:44:00
1 2020-07-16 12:00:00 rrr = trazas y WW = 3 w1=2 w2=2 0.0 2020-07-16 11:58:00
1 2020-07-22 12:00:00 rrr = s/p y WW = 10 w1=5 w2=2 0.0 2020-07-23 11:54:00
1 2020-07-22 18:00:00 rrr = s/p y WW = 10 w1=5 w2=2 0.0 2020-07-22 18:36:00
1 2020-07-24 00:00:00 rrr = s/p y WW = 39 w1=7 w2=3 0.0 2020-07-23 23:58:00
1 2020-07-25 12:00:00 rrr = trazas y WW = 2 w1=2 w2=2 0.0 2020-07-25 11:53:00
1 2020-07-28 00:00:00 rrr = s/p y WW = 37 w1=7 w2=3 0.0 2020-07-27 23:57:00
1 2020-07-28 06:00:00 rrr = s/p y WW = 39 w1=7 w2=3 0.0 2020-07-28 05:47:00
1 2020-07-29 18:00:00 rrr = s/p y WW = 36 w1=7 w2=3 0.0 2020-07-29 17:52:00
1 2020-08-04 12:00:00 rrr = s/p y WW = 10 w1=7 w2=2 0.0 2020-08-04 11:56:00
1 2020-08-08 18:00:00 rrr = trazas y WW = 2 w1=2 w2=2 0.0 2020-08-08 17:58:00
1 2020-08-13 06:00:00 rrr = 1.0 y WW = 36 w1=2 w2=2 1.0 2020-08-13 12:06:00
1 2020-08-20 12:00:00 rrr = s/p y WW = 71 w1=2 w2=1 0.0 2020-08-20 12:00:00
1 2020-08-22 06:00:00 rrr = s/p y WW = 39 w1=7 w2=3 0.0 2020-08-22 06:14:00
1 2020-08-25 00:00:00 rrr = 1.0 y WW = 2 w1=2 w2=2 1.0 2020-08-24 23:52:00
1 2020-08-27 00:00:00 rrr = 1.0 y WW = 1 w1=2 w2=2 1.0 2020-08-26 23:56:00
1 2020-08-29 00:00:00 rrr = trazas y WW = 36 w1=2 w2=2 0.0 2020-08-29 00:09:00
1 2020-09-02 00:00:00 rrr = trazas y WW = 1 w1=2 w2=2 0.0 2020-09-01 23:52:00
1 2020-09-03 12:00:00 rrr = s/p y WW = 1 w1=7 w2=2 0.0 2020-09-03 11:57:00
1 2020-09-05 00:00:00 rrr = trazas y WW = 2 w1=2 w2=2 0.0 2020-09-04 23:54:00
1 2020-09-07 18:00:00 rrr = s/p y WW = 26 w1=7 w2=2 0.0 2020-09-07 17:59:00
1 2020-09-09 00:00:00 rrr = trazas y WW = 2 w1=2 w2=2 0.0 2020-09-08 23:57:00
1 2020-09-10 00:00:00 rrr = trazas y WW = 2 w1=2 w2=2 0.0 2020-09-09 23:54:00
1 2020-09-10 12:00:00 rrr = trazas y WW = 2 w1=2 w2=2 0.0 2020-09-10 11:57:00
1 2020-09-11 06:00:00 rrr = trazas y WW = 10 w1=2 w2=2 0.0 2020-09-11 05:56:00
1 2020-09-14 12:00:00 rrr = 2.0 y WW = 38 w1=3 w2=2 2.0 2020-09-14 11:56:00
1 2020-09-15 06:00:00 rrr = trazas y WW = 39 w1=3 w2=3 0.0 2020-09-15 05:52:00
1 2020-09-19 12:00:00 rrr = 1.0 y WW = 1 w1=2 w2=2 1.0 2020-09-19 12:00:00
1 2020-09-19 18:00:00 rrr = trazas y WW = 3 w1=2 w2=1 0.0 2020-09-19 17:56:00
1 2020-09-21 12:00:00 rrr = trazas y WW = 10 w1=2 w2=2 0.0 2020-09-21 12:07:00
1 2020-09-23 18:00:00 rrr = 2.0 y WW = 3 w1=2 w2=2 2.0 2020-09-23 17:54:00
1 2020-09-26 06:00:00 rrr = 5.0 y WW = 2 w1=2 w2=2 5.0 2020-09-26 06:04:00
1 2020-09-26 18:00:00 rrr = trazas y WW = 37 w1=2 w2=2 0.0 2020-09-26 18:00:00
1 2020-09-27 00:00:00 rrr = 3.0 y WW = 3 w1=2 w2=1 3.0 2020-09-27 00:05:00
1 2020-09-27 12:00:00 rrr = 1.0 y WW = 1 w1=2 w2=2 1.0 2020-09-27 11:55:00
1 2020-09-28 18:00:00 rrr = trazas y WW = 36 w1=3 w2=2 0.0 2020-09-28 17:58:00
1 2020-10-04 00:00:00 rrr = 5.0 y WW = 10 w1=2 w2=2 5.0 2020-10-03 23:58:00
1 2020-10-07 18:00:00 rrr = trazas y WW = 2 w1=2 w2=2 0.0 2020-10-07 18:01:00
1 2020-10-11 12:00:00 rrr = trazas y WW = 37 w1=4 w2=2 0.0 2020-10-11 12:00:00
1 2020-10-11 18:00:00 rrr = 1.0 y WW = 1 w1=3 w2=1 1.0 2020-10-11 18:05:00
1 2020-10-12 06:00:00 rrr = 2.0 y WW = 2 w1=2 w2=2 2.0 2020-10-12 06:01:00
1 2020-10-13 00:00:00 rrr = 2.0 y WW = 2 w1=2 w2=2 2.0 2020-10-12 23:54:00
1 2020-10-15 06:00:00 rrr = trazas y WW = 1 w1=2 w2=1 0.0 2020-10-15 05:47:00
1 2020-10-16 00:00:00 rrr = s/p y WW = 77 w1=7 w2=7 0.0 2020-10-16 00:10:00
1 2020-10-16 06:00:00 rrr = s/p y WW = 2 w1=7 w2=2 0.0 2020-10-16 06:06:00
1 2020-10-19 06:00:00 rrr = 1.0 y WW = 36 w1=3 w2=3 1.0 2020-10-19 05:48:00
1 2020-10-23 00:00:00 rrr = s/p y WW = 10 w1=7 w2=2 0.0 2020-10-22 23:49:00
1 2020-10-28 12:00:00 rrr = s/p y WW = 10 w1=7 w2=2 0.0 2020-10-28 11:47:00
1 2020-11-01 12:00:00 rrr = 1.0 y WW = 2 w1=2 w2=2 1.0 2020-11-01 11:53:00
1 2020-11-07 18:00:00 rrr = 1.3 y WW = 2 w1=2 w2=2 1.3 2020-11-07 17:50:00
1 2020-11-09 12:00:00 rrr = trazas y WW = 1 w1=2 w2=2 0.0 2020-11-09 12:07:00
1 2020-11-15 00:00:00 rrr = s/p y WW = 1 w1=7 w2=2 0.0 2020-11-15 00:00:00
1 2020-11-16 00:00:00 rrr = trazas y WW = 10 w1=2 w2=2 0.0 2020-11-15 23:55:00
1 2020-11-16 18:00:00 rrr = trazas y WW = 2 w1=4 w2=2 0.0 2020-11-16 17:55:00
1 2020-11-18 18:00:00 rrr = trazas y WW = 1 w1=2 w2=0 0.0 2020-11-18 21:02:00
1 2020-11-19 12:00:00 rrr = s/p y WW = 2 w1=6 w2=4 0.0 2020-11-19 12:01:00
1 2020-11-27 00:00:00 rrr = trazas y WW = 2 w1=2 w2=2 0.0 2020-11-26 23:58:00
1 2020-11-30 18:00:00 rrr = 0.6 y WW = 1 w1=2 w2=0 0.6 2020-11-30 17:52:00
1 2020-12-06 18:00:00 rrr = trazas y WW = 10 w1=2 w2=2 0.0 2020-12-07 11:56:00
1 2020-12-08 00:00:00 rrr = trazas y WW = 2 w1=2 w2=2 0.0 2020-12-07 23:41:00
1 2020-12-11 18:00:00 rrr = trazas y WW = 10 w1=2 w2=2 0.0 2020-12-12 11:44:00
1 2020-12-19 18:00:00 rrr = trazas y WW = 1 w1=2 w2=2 0.0 2020-12-19 18:38:00
1 2020-12-20 18:00:00 rrr = 0.3 y WW = 2 w1=4 w2=4 0.3 2020-12-20 17:50:00
1 2020-12-23 06:00:00 rrr = 0.2 y WW = 10 w1=2 w2=2 0.2 2020-12-23 05:42:00
1 2020-12-26 00:00:00 rrr = 0.6 y WW = 10 w1=4 w2=2 0.6 2020-12-25 23:59:00
1 2020-12-27 06:00:00 rrr = 2.7 y WW = 10 w1=2 w2=2 2.7 2020-12-27 05:38:00
1 2020-12-31 00:00:00 rrr = s/p y WW = 44 w1=5 w2=4 0.0 2020-12-30 23:41:00
1 2021-01-10 12:00:00 rrr = 0.7 y WW = 2 w1=4 w2=2 0.7 2021-01-10 11:48:00
1 2021-01-12 00:00:00 rrr = trazas y WW = 10 w1=2 w2=2 0.0 2021-01-11 23:42:00
1 2021-01-12 06:00:00 rrr = trazas y WW = 2 w1=2 w2=2 0.0 2021-01-12 05:35:00
1 2021-01-14 06:00:00 rrr = trazas y WW = 2 w1=2 w2=2 0.0 2021-01-14 05:40:00
1 2021-01-15 00:00:00 rrr = 0.1 y WW = 1 w1=1 w2=0 0.1 2021-01-14 23:59:00
1 2021-01-18 06:00:00 rrr = 0.1 y WW = 10 w1=4 w2=4 0.1 2021-01-18 05:37:00
1 2021-01-21 00:00:00 rrr = 13.6 y WW = 10 w1=2 w2=2 13.6 2021-01-20 23:56:00
1 2021-01-22 12:00:00 rrr = s/p y WW = 44 w1=5 w2=4 0.0 2021-01-22 11:45:00
1 2021-01-30 06:00:00 rrr = 0.2 y WW = 10 w1=4 w2=4 0.2 2021-01-30 05:41:00
1 2021-01-31 00:00:00 rrr = 0.1 y WW = 1 w1=2 w2=2 0.1 2021-01-30 23:57:00
1 2021-02-09 18:00:00 rrr = 0.3 y WW = 10 w1=2 w2=2 0.3 2021-02-09 17:47:00
1 2021-02-11 12:00:00 rrr = s/p y WW = 10 w1=5 w2=4 0.0 2021-02-11 11:46:00
1 2021-02-13 06:00:00 rrr = 0.2 y WW = 2 w1=1 w2=0 0.2 2021-02-13 11:22:00
1 2021-02-19 18:00:00 rrr = trazas y WW = 3 w1=2 w2=2 0.0 2021-02-19 17:53:00
1 2021-02-25 18:00:00 rrr = 1.0 y WW = 2 w1=2 w2=2 1.0 2021-02-25 17:50:00
1 2021-02-26 06:00:00 rrr = trazas y WW = 0 w1=2 w2=0 0.0 2021-02-26 05:41:00
1 2021-03-02 18:00:00 rrr = 0.8 y WW = 10 w1=2 w2=2 0.8 2021-03-02 18:00:00
1 2021-03-04 18:00:00 rrr = 0.7 y WW = 10 w1=2 w2=1 0.7 2021-03-04 17:50:00
1 2021-03-07 18:00:00 rrr = 3.8 y WW = 10 w1=2 w2=2 3.8 2021-03-07 17:49:00
1 2021-03-09 18:00:00 rrr = 0.8 y WW = 10 w1=2 w2=2 0.8 2021-03-09 17:47:00
1 2021-03-13 00:00:00 rrr = trazas y WW = 10 w1=2 w2=2 0.0 2021-03-12 23:35:00
1 2021-03-14 06:00:00 rrr = trazas y WW = 2 w1=2 w2=2 0.0 2021-03-14 05:45:00
1 2021-03-18 00:00:00 rrr = 0.2 y WW = 10 w1=2 w2=2 0.2 2021-03-17 23:44:00
1 2021-03-19 18:00:00 rrr = 0.2 y WW = 1 w1=2 w2=1 0.2 2021-03-19 17:51:00
1 2021-03-20 00:00:00 rrr = trazas y WW = 2 w1=2 w2=2 0.0 2021-03-19 23:55:00
1 2021-03-20 18:00:00 rrr = 0.3 y WW = 2 w1=2 w2=2 0.3 2021-03-20 18:45:00
1 2021-03-22 06:00:00 rrr = 0.2 y WW = 0 w1=0 w2=0 0.2 2021-03-22 11:21:00
1 2021-03-28 12:00:00 rrr = 0.2 y WW = 3 w1=2 w2=2 0.2 2021-03-28 11:49:00
1 2021-03-29 12:00:00 rrr = 1.7 y WW = 10 w1=2 w2=1 1.7 2021-03-29 12:01:00
1 2021-03-31 00:00:00 rrr = 0.4 y WW = 10 w1=4 w2=4 0.4 2021-04-03 21:55:00
1 2021-04-02 12:00:00 rrr = 0.1 y WW = 1 w1=2 w2=2 0.1 2021-04-02 12:00:00
1 2021-04-04 06:00:00 rrr = trazas y WW = 1 w1=2 w2=1 0.0 2021-04-04 05:57:00
1 2021-04-04 18:00:00 rrr = 0.1 y WW = 1 w1=2 w2=2 0.1 2021-04-04 18:02:00
1 2021-04-08 18:00:00 rrr = trazas y WW = 2 w1=2 w2=2 0.0 2021-04-08 17:41:00
1 2021-04-10 06:00:00 rrr = trazas y WW = 2 w1=2 w2=2 0.0 2021-04-10 05:58:00
1 2021-04-14 06:00:00 rrr = trazas y WW = 2 w1=2 w2=2 0.0 2021-04-14 05:38:00
1 2021-04-17 12:00:00 rrr = trazas y WW = 1 w1=2 w2=2 0.0 2021-04-17 12:04:00
1 2021-04-18 18:00:00 rrr = 0.2 y WW = 1 w1=2 w2=1 0.2 2021-04-18 17:57:00
1 2021-04-23 00:00:00 rrr = trazas y WW = 1 w1=2 w2=2 0.0 2021-04-22 23:42:00
1 2021-04-26 06:00:00 rrr = trazas y WW = 10 w1=2 w2=2 0.0 2021-04-26 05:37:00
1 2021-04-29 18:00:00 rrr = trazas y WW = 1 w1=1 w2=0 0.0 2021-04-29 17:38:00
1 2021-05-03 00:00:00 rrr = trazas y WW = 2 w1=2 w2=2 0.0 2021-05-02 23:54:00
1 2021-05-04 06:00:00 rrr = trazas y WW = 1 w1=2 w2=1 0.0 2021-05-04 05:45:00
1 2021-05-12 00:00:00 rrr = 0.4 y WW = 2 w1=4 w2=2 0.4 2021-05-11 23:44:00
1 2021-05-13 00:00:00 rrr = 0.5 y WW = 2 w1=2 w2=2 0.5 2021-05-12 23:56:00
1 2021-05-16 18:00:00 rrr = trazas y WW = 28 w1=2 w2=2 0.0 2021-05-16 17:43:00
1 2021-05-21 18:00:00 rrr = trazas y WW = 2 w1=2 w2=2 0.0 2021-05-21 18:10:00
1 2021-06-05 18:00:00 rrr = trazas y WW = 2 w1=2 w2=2 0.0 2021-06-05 18:33:00
1 2021-06-07 12:00:00 rrr = trazas y WW = 1 w1=2 w2=1 0.0 2021-06-07 11:59:00
1 2021-06-10 18:00:00 rrr = trazas y WW = 2 w1=2 w2=2 0.0 2021-06-10 17:55:00
1 2021-06-14 12:00:00 rrr = trazas y WW = 10 w1=2 w2=1 0.0 2021-06-14 11:50:00
1 2021-06-15 12:00:00 rrr = trazas y WW = 2 w1=2 w2=2 0.0 2021-06-15 11:49:00
1 2021-06-18 18:00:00 rrr = trazas y WW = 3 w1=2 w2=2 0.0 2021-06-18 23:37:00
1 2021-06-22 18:00:00 rrr = trazas y WW = 10 w1=4 w2=4 0.0 2021-06-22 17:45:00
1 2021-06-23 00:00:00 rrr = trazas y WW = 2 w1=4 w2=2 0.0 2021-06-22 23:42:00
1 2021-06-25 00:00:00 rrr = trazas y WW = 2 w1=2 w2=2 0.0 2021-06-24 23:54:00
1 2021-06-28 18:00:00 rrr = trazas y WW = 10 w1=4 w2=4 0.0 2021-06-28 17:41:00
1 2021-06-29 06:00:00 rrr = trazas y WW = 2 w1=2 w2=2 0.0 2021-06-29 05:47:00
1 2021-06-30 06:00:00 rrr = s/p y WW = 58 w1=5 w2=5 0.0 2021-06-30 05:39:00
1 2021-07-06 00:00:00 rrr = 0.7 y WW = 1 w1=4 w2=0 0.7 2021-07-06 00:02:00
1 2021-07-09 18:00:00 rrr = s/p y WW = 51 w1=2 w2=2 0.0 2021-07-09 17:43:00
1 2021-07-10 18:00:00 rrr = 0.2 y WW = 2 w1=2 w2=2 0.2 2021-07-10 17:42:00
1 2021-07-12 06:00:00 rrr = trazas y WW = 38 w1=3 w2=0 0.0 2021-07-12 05:49:00
1 2021-07-16 12:00:00 rrr = 0.4 y WW = 1 w1=4 w2=4 0.4 2021-07-16 11:54:00
1 2021-07-21 12:00:00 rrr = trazas y WW = 2 w1=2 w2=2 0.0 2021-07-21 11:54:00
1 2021-08-02 00:00:00 rrr = 0.2 y WW = 10 w1=2 w2=2 0.2 2021-08-02 00:03:00
1 2021-08-03 00:00:00 rrr = trazas y WW = 10 w1=4 w2=4 0.0 2021-08-02 23:50:00
1 2021-08-03 18:00:00 rrr = trazas y WW = 36 w1=3 w2=3 0.0 2021-08-03 17:57:00
1 2021-08-05 00:00:00 rrr = trazas y WW = 38 w1=3 w2=3 0.0 2021-08-04 23:49:00
1 2021-08-05 18:00:00 rrr = trazas y WW = 10 w1=2 w2=2 0.0 2021-08-05 18:12:00
1 2021-08-10 18:00:00 rrr = 1.2 y WW = 36 w1=3 w2=2 1.2 2021-08-10 17:58:00
1 2021-08-15 12:00:00 rrr = trazas y WW = 2 w1=2 w2=2 0.0 2021-08-15 11:46:00
1 2021-08-17 18:00:00 rrr = trazas y WW = 2 w1=2 w2=2 0.0 2021-08-17 19:04:00
1 2021-08-19 12:00:00 rrr = trazas y WW = 10 w1=2 w2=2 0.0 2021-08-19 11:44:00
1 2021-08-23 06:00:00 rrr = trazas y WW = 2 w1=2 w2=2 0.0 2021-08-23 05:53:00
1 2021-08-23 12:00:00 rrr = trazas y WW = 2 w1=2 w2=2 0.0 2021-08-23 12:00:00
1 2021-08-26 18:00:00 rrr = trazas y WW = 10 w1=2 w2=2 0.0 2021-08-26 17:43:00
1 2021-08-27 00:00:00 rrr = trazas y WW = 10 w1=2 w2=2 0.0 2021-08-26 23:44:00
1 2021-08-29 06:00:00 rrr = 0.6 y WW = 3 w1=4 w2=2 0.6 2021-08-29 05:51:00
1 2021-09-03 18:00:00 rrr = 6.0 y WW = 3 w1=2 w2=2 6.0 2021-09-03 18:46:00
1 2021-09-04 12:00:00 rrr = 0.4 y WW = 1 w1=2 w2=2 0.4 2021-09-04 11:53:00
1 2021-09-07 00:00:00 rrr = 1.4 y WW = 2 w1=2 w2=2 1.4 2021-09-07 00:13:00
1 2021-09-10 06:00:00 rrr = trazas y WW = 1 w1=2 w2=2 0.0 2021-09-10 05:44:00
1 2021-09-12 06:00:00 rrr = trazas y WW = 2 w1=2 w2=2 0.0 2021-09-12 05:34:00
1 2021-09-22 12:00:00 rrr = 0.3 y WW = 10 w1=2 w2=2 0.3 2021-09-22 11:49:00
1 2021-09-23 18:00:00 rrr = 0.1 y WW = 10 w1=2 w2=2 0.1 2021-09-23 17:36:00
1 2021-09-24 00:00:00 rrr = 0.2 y WW = 10 w1=2 w2=2 0.2 2021-09-23 23:47:00
1 2021-09-26 00:00:00 rrr = trazas y WW = 36 w1=2 w2=2 0.0 2021-09-25 23:48:00
1 2021-09-26 12:00:00 rrr = trazas y WW = 2 w1=2 w2=2 0.0 2021-09-26 11:44:00
1 2021-09-27 06:00:00 rrr = trazas y WW = 10 w1=4 w2=4 0.0 2021-09-27 08:57:00
1 2021-09-29 00:00:00 rrr = trazas y WW = 2 w1=2 w2=2 0.0 2021-09-28 23:41:00
1 2021-10-03 12:00:00 rrr = 0.6 y WW = 2 w1=2 w2=2 0.6 2021-10-03 11:43:00
1 2021-10-04 12:00:00 rrr = trazas y WW = 36 w1=4 w2=2 0.0 2021-10-04 11:56:00
1 2021-10-07 00:00:00 rrr = trazas y WW = 1 w1=4 w2=4 0.0 2021-10-07 00:01:00
1 2021-10-09 00:00:00 rrr = trazas y WW = 2 w1=2 w2=2 0.0 2021-10-08 23:42:00
1 2021-10-10 06:00:00 rrr = 1.4 y WW = 0 w1=2 w2=0 1.4 2021-10-10 05:50:00
1 2021-10-10 18:00:00 rrr = trazas y WW = 0 w1=1 w2=0 0.0 2021-10-10 17:37:00
1 2021-10-11 12:00:00 rrr = trazas y WW = 10 w1=2 w2=1 0.0 2021-10-11 12:03:00
1 2021-10-13 18:00:00 rrr = 0.7 y WW = 2 w1=2 w2=2 0.7 2021-10-13 19:00:00
1 2021-10-15 18:00:00 rrr = trazas y WW = 10 w1=2 w2=2 0.0 2021-10-15 18:09:00
1 2021-10-17 06:00:00 rrr = trazas y WW = 2 w1=2 w2=2 0.0 2021-10-17 06:17:00
1 2021-10-19 12:00:00 rrr = trazas y WW = 2 w1=2 w2=2 0.0 2021-10-19 11:50:00
1 2021-10-20 06:00:00 rrr = trazas y WW = 10 w1=4 w2=2 0.0 2021-10-20 05:57:00
1 2021-10-20 12:00:00 rrr = 2.0 y WW = 10 w1=2 w2=2 2.0 2021-10-20 11:43:00
1 2021-10-21 00:00:00 rrr = trazas y WW = 3 w1=3 w2=1 0.0 2021-10-20 23:40:00
1 2021-10-22 06:00:00 rrr = trazas y WW = 2 w1=2 w2=2 0.0 2021-10-22 05:43:00
1 2021-10-23 12:00:00 rrr = trazas y WW = 28 w1=4 w2=4 0.0 2021-10-23 11:54:00
1 2021-10-28 12:00:00 rrr = trazas y WW = 10 w1=2 w2=2 0.0 2021-10-28 11:49:00
1 2021-11-01 12:00:00 rrr = trazas y WW = 10 w1=4 w2=4 0.0 2021-11-01 11:49:00
1 2021-11-03 12:00:00 rrr = trazas y WW = 10 w1=4 w2=2 0.0 2021-11-03 11:51:00
1 2021-11-10 00:00:00 rrr = trazas y WW = 2 w1=2 w2=2 0.0 2021-11-10 00:21:00
1 2021-11-11 18:00:00 rrr = 0.2 y WW = 10 w1=2 w2=2 0.2 2021-11-11 18:52:00
1 2021-11-17 12:00:00 rrr = 0.8 y WW = 1 w1=2 w2=2 0.8 2021-11-17 12:10:00
1 2021-11-24 00:00:00 rrr = trazas y WW = 0 w1=2 w2=2 0.0 2021-11-24 00:23:00
1 2021-11-27 06:00:00 rrr = 0.7 y WW = 2 w1=2 w2=2 0.7 2021-11-27 05:55:00
1 2021-11-28 18:00:00 rrr = 1.3 y WW = 10 w1=2 w2=2 1.3 2021-11-28 18:43:00
1 2021-12-01 12:00:00 rrr = 4.0 y WW = 2 w1=2 w2=2 4.0 2021-12-01 12:12:00
1 2021-12-01 18:00:00 rrr = 0.2 y WW = 2 w1=2 w2=2 0.2 2021-12-01 18:00:00
1 2021-12-02 18:00:00 rrr = 3.8 y WW = 1 w1=2 w2=1 3.8 2021-12-02 18:17:00
1 2021-12-03 00:00:00 rrr = 0.3 y WW = 3 w1=2 w2=2 0.3 2021-12-02 23:59:00
1 2021-12-03 06:00:00 rrr = 0.3 y WW = 3 w1=2 w2=1 0.3 2021-12-03 06:07:00
1 2021-12-04 12:00:00 rrr = 1.2 y WW = 10 w1=4 w2=4 1.2 2021-12-04 11:53:00
1 2021-12-04 18:00:00 rrr = 2.6 y WW = 3 w1=2 w2=2 2.6 2021-12-04 17:56:00
1 2021-12-05 12:00:00 rrr = 0.6 y WW = 10 w1=2 w2=2 0.6 2021-12-05 11:50:00
1 2021-12-05 18:00:00 rrr = 0.6 y WW = 2 w1=1 w2=0 0.6 2021-12-05 17:49:00
1 2021-12-06 00:00:00 rrr = 0.6 y WW = 3 w1=2 w2=2 0.6 2021-12-06 00:02:00
1 2021-12-08 00:00:00 rrr = trazas y WW = 0 w1=2 w2=2 0.0 2021-12-08 01:00:00
1 2021-12-08 18:00:00 rrr = 0.1 y WW = 10 w1=2 w2=2 0.1 2021-12-08 17:58:00
1 2021-12-09 00:00:00 rrr = 0.3 y WW = 2 w1=2 w2=2 0.3 2021-12-09 00:06:00
1 2021-12-09 06:00:00 rrr = 0.1 y WW = 10 w1=2 w2=2 0.1 2021-12-09 05:57:00
1 2021-12-09 18:00:00 rrr = 0.1 y WW = 10 w1=2 w2=2 0.1 2021-12-09 17:48:00
1 2021-12-10 06:00:00 rrr = 1.9 y WW = 10 w1=2 w2=2 1.9 2021-12-10 05:33:00
1 2021-12-15 12:00:00 rrr = s/p y WW = 2 w1=7 w2=2 0.0 2021-12-15 12:30:00
1 2021-12-16 18:00:00 rrr = s/p y WW = 22 w1=7 w2=7 0.0 2021-12-16 18:41:00
1 2021-12-17 00:00:00 rrr = 0.1 y WW = 1 w1=0 w2=0 0.1 2021-12-17 00:25:00
1 2021-12-21 18:00:00 rrr = trazas y WW = 2 w1=0 w2=0 0.0 2021-12-21 18:58:00
1 2021-12-23 12:00:00 rrr = 4.0 y WW = 2 w1=2 w2=2 4.0 2021-12-23 11:48:00
1 2021-12-23 18:00:00 rrr = 5.2 y WW = 3 w1=2 w2=2 5.2 2021-12-23 17:55:00
1 2021-12-24 00:00:00 rrr = 5.6 y WW = 1 w1=2 w2=2 5.6 2021-12-24 00:02:00
1 2021-12-24 06:00:00 rrr = s/p y WW = 10 w1=5 w2=2 0.0 2021-12-24 06:05:00
1 2021-12-26 18:00:00 rrr = 2.2 y WW = 10 w1=2 w2=2 2.2 2021-12-26 18:05:00
1 2021-12-27 06:00:00 rrr = 0.5 y WW = 10 w1=2 w2=2 0.5 2021-12-27 06:16:00
1 2021-12-27 12:00:00 rrr = 1.8 y WW = 10 w1=2 w2=2 1.8 2021-12-27 12:07:00
1 2021-12-28 06:00:00 rrr = 0.2 y WW = 2 w1=2 w2=2 0.2 2021-12-28 06:04:00
1 2021-12-31 00:00:00 rrr = trazas y WW = 2 w1=2 w2=2 0.0 2021-12-31 00:10:00
1 2021-12-31 06:00:00 rrr = trazas y WW = 2 w1=2 w2=2 0.0 2021-12-31 06:00:00
1 2022-01-03 00:00:00 rrr = 0.1 y WW = 10 w1=4 w2=2 0.1 2022-01-03 00:03:00
1 2022-01-05 18:00:00 rrr = trazas y WW = 2 w1=2 w2=2 0.0 2022-01-05 18:05:00
1 2022-01-06 00:00:00 rrr = trazas y WW = 1 w1=2 w2=1 0.0 2022-01-06 00:12:00
1 2022-01-06 06:00:00 rrr = trazas y WW = 2 w1=2 w2=2 0.0 2022-01-06 06:27:00
1 2022-01-06 12:00:00 rrr = trazas y WW = 2 w1=2 w2=2 0.0 2022-01-06 12:06:00
1 2022-01-07 12:00:00 rrr = s/p y WW = 70 w1=7 w2=2 0.0 2022-01-07 12:06:00
1 2022-01-07 18:00:00 rrr = 1.0 y WW = 10 w1=2 w2=2 1.0 2022-01-07 18:16:00
1 2022-01-08 06:00:00 rrr = 0.4 y WW = 2 w1=2 w2=2 0.4 2022-01-08 07:24:00
1 2022-01-08 12:00:00 rrr = 0.1 y WW = 2 w1=2 w2=2 0.1 2022-01-08 12:13:00
1 2022-01-09 00:00:00 rrr = 0.2 y WW = 2 w1=2 w2=2 0.2 2022-01-09 00:04:00
1 2022-01-09 12:00:00 rrr = 0.2 y WW = 28 w1=4 w2=4 0.2 2022-01-09 11:53:00
1 2022-01-11 12:00:00 rrr = s/p y WW = 21 w1=7 w2=7 0.0 2022-01-11 11:39:00
1 2022-01-11 18:00:00 rrr = 0.2 y WW = 10 w1=2 w2=2 0.2 2022-01-11 19:06:00
1 2022-01-12 00:00:00 rrr = trazas y WW = 2 w1=2 w2=2 0.0 2022-01-12 00:13:00
1 2022-01-12 06:00:00 rrr = 0.1 y WW = 2 w1=2 w2=2 0.1 2022-01-12 06:00:00
1 2022-01-12 12:00:00 rrr = s/p y WW = 2 w1=7 w2=2 0.0 2022-01-12 12:20:00
1 2022-01-13 18:00:00 rrr = 1.0 y WW = 2 w1=2 w2=2 1.0 2022-01-13 18:14:00
1 2022-01-14 00:00:00 rrr = 0.1 y WW = 2 w1=2 w2=2 0.1 2022-01-14 00:20:00
1 2022-01-15 06:00:00 rrr = 0.2 y WW = 2 w1=2 w2=2 0.2 2022-01-15 06:04:00
1 2022-01-20 12:00:00 rrr = s/p y WW = 53 w1=4 w2=4 0.0 2022-01-20 12:13:00
1 2022-01-22 00:00:00 rrr = 0.4 y WW = 10 w1=2 w2=2 0.4 2022-01-22 00:21:00
1 2022-01-25 12:00:00 rrr = 5.2 y WW = 2 w1=2 w2=2 5.2 2022-01-25 12:06:00
1 2022-01-27 12:00:00 rrr = s/p y WW = 73 w1=2 w2=2 0.0 2022-01-27 12:36:00
1 2022-02-02 00:00:00 rrr = 0.8 y WW = 2 w1=2 w2=2 0.8 2022-02-02 00:01:00
1 2022-02-02 06:00:00 rrr = 0.2 y WW = 2 w1=2 w2=2 0.2 2022-02-02 06:16:00
1 2022-02-02 12:00:00 rrr = 0.4 y WW = 2 w1=2 w2=2 0.4 2022-02-02 12:19:00
1 2022-02-05 18:00:00 rrr = trazas y WW = 10 w1=4 w2=4 0.0 2022-02-05 18:48:00
1 2022-02-06 12:00:00 rrr = 2.5 y WW = 2 w1=2 w2=2 2.5 2022-02-06 12:29:00
1 2022-02-07 18:00:00 rrr = 2.0 y WW = 2 w1=2 w2=2 2.0 2022-02-07 18:16:00
1 2022-02-09 00:00:00 rrr = 0.2 y WW = 10 w1=4 w2=4 0.2 2022-02-08 23:59:00
1 2022-02-11 18:00:00 rrr = trazas y WW = 2 w1=2 w2=2 0.0 2022-02-11 18:14:00
1 2022-02-12 00:00:00 rrr = trazas y WW = 2 w1=2 w2=2 0.0 2022-02-12 00:31:00
1 2022-02-14 18:00:00 rrr = 0.2 y WW = 3 w1=2 w2=1 0.2 2022-02-14 17:58:00
1 2022-02-15 00:00:00 rrr = 0.2 y WW = 2 w1=2 w2=2 0.2 2022-02-15 00:06:00
1 2022-02-15 18:00:00 rrr = 1.9 y WW = 2 w1=2 w2=2 1.9 2022-02-15 19:15:00
1 2022-02-17 00:00:00 rrr = 0.5 y WW = 3 w1=2 w2=1 0.5 2022-02-17 00:13:00
1 2022-02-17 18:00:00 rrr = 2.5 y WW = 2 w1=2 w2=2 2.5 2022-02-17 18:06:00
1 2022-02-20 18:00:00 rrr = 0.1 y WW = 2 w1=2 w2=2 0.1 2022-02-20 18:15:00
1 2022-02-21 06:00:00 rrr = 0.2 y WW = 10 w1=2 w2=2 0.2 2022-02-21 08:43:00
1 2022-02-21 12:00:00 rrr = 1.8 y WW = 10 w1=2 w2=2 1.8 2022-02-21 11:55:00
1 2022-02-21 18:00:00 rrr = 0.2 y WW = 10 w1=4 w2=4 0.2 2022-02-21 18:10:00
1 2022-02-22 00:00:00 rrr = 0.4 y WW = 10 w1=4 w2=4 0.4 2022-02-22 00:12:00
1 2022-02-22 06:00:00 rrr = 0.2 y WW = 10 w1=4 w2=4 0.2 2022-02-22 09:49:00
1 2022-02-23 18:00:00 rrr = trazas y WW = 2 w1=2 w2=2 0.0 2022-02-23 18:15:00
1 2022-02-24 00:00:00 rrr = trazas y WW = 0 w1=2 w2=2 0.0 2022-02-24 00:28:00
1 2022-02-25 00:00:00 rrr = 4.2 y WW = 2 w1=2 w2=2 4.2 2022-02-24 23:42:00
1 2022-02-26 12:00:00 rrr = 1.5 y WW = 2 w1=2 w2=2 1.5 2022-02-26 12:21:00
1 2022-02-26 18:00:00 rrr = 0.1 y WW = 2 w1=2 w2=2 0.1 2022-02-26 18:11:00
1 2022-02-27 12:00:00 rrr = 2.3 y WW = 10 w1=2 w2=2 2.3 2022-02-27 12:18:00
1 2022-02-27 18:00:00 rrr = 4.1 y WW = 10 w1=4 w2=4 4.1 2022-02-27 18:28:00
1 2022-03-04 18:00:00 rrr = 0.3 y WW = 2 w1=2 w2=2 0.3 2022-03-04 18:20:00
1 2022-03-05 06:00:00 rrr = 0.2 y WW = 2 w1=2 w2=2 0.2 2022-03-05 06:21:00
1 2022-03-05 18:00:00 rrr = 0.4 y WW = 10 w1=4 w2=4 0.4 2022-03-05 18:15:00
1 2022-03-06 00:00:00 rrr = 0.2 y WW = 10 w1=4 w2=4 0.2 2022-03-05 23:44:00
1 2022-03-09 12:00:00 rrr = 0.5 y WW = 10 w1=4 w2=4 0.5 2022-03-09 12:30:00
1 2022-03-10 12:00:00 rrr = 0.2 y WW = 2 w1=2 w2=2 0.2 2022-03-10 12:23:00
1 2022-03-11 18:00:00 rrr = 0.1 y WW = 10 w1=4 w2=4 0.1 2022-03-11 17:57:00
1 2022-03-14 00:00:00 rrr = s/p y WW = 77 w1=7 w2=7 0.0 2022-03-14 00:15:00
1 2022-03-14 06:00:00 rrr = s/p y WW = 77 w1=7 w2=7 0.0 2022-03-14 06:22:00
1 2022-03-14 18:00:00 rrr = trazas y WW = 2 w1=2 w2=2 0.0 2022-03-14 18:17:00
1 2022-03-15 18:00:00 rrr = s/p y WW = 39 w1=7 w2=7 0.0 2022-03-15 18:25:00
1 2022-03-16 12:00:00 rrr = s/p y WW = 39 w1=7 w2=7 0.0 2022-03-16 12:48:00
1 2022-03-16 18:00:00 rrr = s/p y WW = 36 w1=7 w2=7 0.0 2022-03-16 18:47:00
1 2022-03-21 12:00:00 rrr = 2.0 y WW = 2 w1=2 w2=2 2.0 2022-03-21 13:07:00
1 2022-03-22 18:00:00 rrr = 1.0 y WW = 10 w1=2 w2=2 1.0 2022-03-22 18:30:00
1 2022-03-23 00:00:00 rrr = 0.3 y WW = 2 w1=2 w2=2 0.3 2022-03-23 00:15:00
1 2022-03-23 06:00:00 rrr = 0.2 y WW = 2 w1=2 w2=2 0.2 2022-03-23 06:07:00
1 2022-03-23 12:00:00 rrr = 0.1 y WW = 2 w1=2 w2=2 0.1 2022-03-23 12:29:00
1 2022-03-25 18:00:00 rrr = 0.6 y WW = 10 w1=2 w2=2 0.6 2022-03-25 18:21:00
1 2022-03-26 12:00:00 rrr = trazas y WW = 10 w1=2 w2=2 0.0 2022-03-26 12:06:00
1 2022-03-26 18:00:00 rrr = trazas y WW = 10 w1=2 w2=2 0.0 2022-03-26 17:56:00
1 2022-03-27 00:00:00 rrr = trazas y WW = 2 w1=2 w2=2 0.0 2022-03-27 00:38:00
1 2022-03-27 06:00:00 rrr = trazas y WW = 2 w1=2 w2=2 0.0 2022-03-27 05:58:00
1 2022-03-31 18:00:00 rrr = 0.3 y WW = 10 w1=2 w2=2 0.3 2022-03-31 18:16:00
1 2022-04-01 12:00:00 rrr = 0.2 y WW = 10 w1=2 w2=1 0.2 2022-04-01 12:16:00
1 2022-04-02 00:00:00 rrr = trazas y WW = 10 w1=2 w2=2 0.0 2022-04-02 00:17:00
1 2022-04-02 06:00:00 rrr = trazas y WW = 10 w1=2 w2=2 0.0 2022-04-02 06:19:00
1 2022-04-02 12:00:00 rrr = trazas y WW = 10 w1=2 w2=2 0.0 2022-04-02 12:32:00
1 2022-04-04 00:00:00 rrr = 0.2 y WW = 2 w1=2 w2=2 0.2 2022-04-04 00:14:00
1 2022-04-04 06:00:00 rrr = 0.1 y WW = 2 w1=2 w2=2 0.1 2022-04-04 06:49:00
1 2022-04-05 00:00:00 rrr = 0.2 y WW = 2 w1=2 w2=2 0.2 2022-04-04 23:37:00
1 2022-04-05 12:00:00 rrr = s/p y WW = 2 w1=7 w2=2 0.0 2022-04-05 12:01:00
1 2022-04-06 18:00:00 rrr = 0.1 y WW = 3 w1=2 w2=2 0.1 2022-04-06 18:07:00
1 2022-04-07 18:00:00 rrr = trazas y WW = 3 w1=2 w2=2 0.0 2022-04-07 18:19:00
1 2022-04-08 00:00:00 rrr = trazas y WW = 2 w1=2 w2=2 0.0 2022-04-08 00:17:00
1 2022-04-08 06:00:00 rrr = trazas y WW = 2 w1=2 w2=2 0.0 2022-04-08 06:02:00
1 2022-04-08 12:00:00 rrr = trazas y WW = 2 w1=2 w2=2 0.0 2022-04-08 12:10:00
1 2022-04-09 18:00:00 rrr = 0.7 y WW = 2 w1=2 w2=2 0.7 2022-04-09 18:11:00
1 2022-04-10 00:00:00 rrr = 0.5 y WW = 10 w1=2 w2=2 0.5 2022-04-10 00:23:00
1 2022-04-10 12:00:00 rrr = 0.3 y WW = 2 w1=2 w2=2 0.3 2022-04-10 12:23:00
1 2022-04-11 06:00:00 rrr = 1.0 y WW = 2 w1=2 w2=2 1.0 2022-04-11 06:10:00
1 2022-04-11 12:00:00 rrr = 0.5 y WW = 2 w1=2 w2=2 0.5 2022-04-11 12:10:00
1 2022-04-11 18:00:00 rrr = 0.2 y WW = 10 w1=4 w2=4 0.2 2022-04-11 19:59:00
1 2022-04-12 00:00:00 rrr = 0.3 y WW = 10 w1=4 w2=4 0.3 2022-04-11 23:44:00
1 2022-04-12 06:00:00 rrr = 0.2 y WW = 10 w1=4 w2=4 0.2 2022-04-12 09:34:00
1 2022-04-12 12:00:00 rrr = 6.0 y WW = 10 w1=4 w2=4 6.0 2022-04-12 14:53:00
1 2022-04-13 06:00:00 rrr = 1.3 y WW = 3 w1=2 w2=2 1.3 2022-04-13 09:32:00
1 2022-04-13 18:00:00 rrr = trazas y WW = 2 w1=2 w2=2 0.0 2022-04-13 18:59:00
1 2022-04-14 00:00:00 rrr = trazas y WW = 2 w1=2 w2=2 0.0 2022-04-14 00:05:00
1 2022-04-14 06:00:00 rrr = trazas y WW = 2 w1=2 w2=2 0.0 2022-04-14 06:04:00
1 2022-04-15 06:00:00 rrr = 2.0 y WW = 10 w1=2 w2=2 2.0 2022-04-15 12:08:00
1 2022-04-15 18:00:00 rrr = 0.2 y WW = 2 w1=2 w2=2 0.2 2022-04-15 18:15:00
1 2022-04-16 06:00:00 rrr = 0.1 y WW = 2 w1=2 w2=2 0.1 2022-04-16 06:04:00
1 2022-04-16 12:00:00 rrr = trazas y WW = 2 w1=2 w2=2 0.0 2022-04-16 12:18:00
1 2022-04-17 06:00:00 rrr = 1.0 y WW = 2 w1=2 w2=2 1.0 2022-04-17 09:03:00
1 2022-04-18 12:00:00 rrr = 0.8 y WW = 10 w1=4 w2=4 0.8 2022-04-18 11:51:00
1 2022-04-20 00:00:00 rrr = trazas y WW = 28 w1=4 w2=4 0.0 2022-04-20 00:14:00
1 2022-04-21 06:00:00 rrr = 1.0 y WW = 2 w1=4 w2=4 1.0 2022-04-21 10:47:00
1 2022-04-22 00:00:00 rrr = s/p y WW = 39 w1=7 w2=7 0.0 2022-04-22 00:10:00
1 2022-04-22 06:00:00 rrr = 0.2 y WW = 10 w1=2 w2=2 0.2 2022-04-22 09:34:00
1 2022-04-23 06:00:00 rrr = 0.2 y WW = 2 w1=2 w2=2 0.2 2022-04-23 09:05:00
1 2022-04-23 18:00:00 rrr = 0.5 y WW = 10 w1=4 w2=4 0.5 2022-04-23 17:44:00
1 2022-04-24 00:00:00 rrr = 1.2 y WW = 40 w1=4 w2=4 1.2 2022-04-23 23:51:00
1 2022-04-24 06:00:00 rrr = 2.2 y WW = 10 w1=4 w2=4 2.2 2022-04-24 10:44:00
1 2022-04-24 12:00:00 rrr = 1.5 y WW = 10 w1=4 w2=4 1.5 2022-04-24 11:55:00
1 2022-04-26 00:00:00 rrr = s/p y WW = 39 w1=7 w2=7 0.0 2022-04-26 00:20:00
1 2022-04-26 06:00:00 rrr = s/p y WW = 39 w1=7 w2=7 0.0 2022-04-26 06:05:00
1 2022-04-28 00:00:00 rrr = 0.1 y WW = 2 w1=2 w2=2 0.1 2022-04-28 00:27:00
1 2022-04-28 06:00:00 rrr = s/p y WW = 68 w1=7 w2=7 0.0 2022-04-28 10:10:00
1 2022-05-03 06:00:00 rrr = 0.3 y WW = 2 w1=2 w2=2 0.3 2022-05-03 06:33:00
1 2022-05-03 12:00:00 rrr = 0.3 y WW = 2 w1=2 w2=2 0.3 2022-05-03 12:11:00
1 2022-05-04 12:00:00 rrr = 0.2 y WW = 39 w1=3 w2=3 0.2 2022-05-04 13:04:00
1 2022-05-21 06:00:00 rrr = trazas y WW = 28 w1=4 w2=4 0.0 2022-05-21 05:59:00
1 2022-05-27 00:00:00 rrr = trazas y WW = 38 w1=2 w2=2 0.0 2022-05-27 00:19:00
1 2022-06-08 00:00:00 rrr = 2.3 y WW = 10 w1=2 w2=2 2.3 2022-06-08 00:09:00
1 2022-06-08 12:00:00 rrr = 0.1 y WW = 10 w1=2 w2=2 0.1 2022-06-08 11:56:00
1 2022-06-17 06:00:00 rrr = 3.0 y WW = 2 w1=3 w2=2 3.0 2022-06-17 09:18:00
1 2022-06-21 06:00:00 rrr = trazas y WW = 38 w1=2 w2=2 0.0 2022-06-21 06:00:00
1 2022-06-22 00:00:00 rrr = 0.1 y WW = 2 w1=2 w2=2 0.1 2022-06-22 00:07:00
1 2022-06-23 00:00:00 rrr = s/p y WW = 22 w1=2 w2=2 0.0 2022-06-23 00:23:00
1 2022-06-28 18:00:00 rrr = s/p y WW = 22 w1=7 w2=2 0.0 2022-06-28 18:29:00
1 2022-07-04 12:00:00 rrr = s/p y WW = 47 w1=7 w2=4 0.0 2022-07-04 11:36:00
1 2022-09-02 12:00:00 rrr = trazas y WW = 36 w1=2 w2=2 0.0 2022-09-02 11:50:00
1 2022-09-12 18:00:00 rrr = 6.0 y WW = 1 w1=0 w2=0 6.0 2022-09-12 21:26:00
1 2022-10-05 18:00:00 rrr = 2.2 y WW = 2 w1=2 w2=2 2.2 2022-10-05 18:18:00
1 2022-10-15 12:00:00 rrr = 0.3 y WW = 2 w1=2 w2=2 0.3 2022-10-15 12:25:00
1 2022-11-03 18:00:00 rrr = 1.2 y WW = 10 w1=2 w2=2 1.2 2022-11-04 12:12:00
1 2022-11-14 12:00:00 rrr = 2.1 y WW = 10 w1=2 w2=2 2.1 2022-11-14 13:44:00
1 2022-12-29 12:00:00 rrr = s/p y WW = 66 w1=7 w2=2 0.0 2022-12-29 12:00:00
1 2023-01-02 12:00:00 rrr = 0.2 y WW = 2 w1=2 w2=2 0.2 2023-01-03 11:57:00
1 2023-01-31 12:00:00 rrr = s/p y WW = 60 w1=6 w2=6 0.0 2023-01-31 12:32:00
1 2023-02-04 18:00:00 rrr = s/p y WW = 50 w1=5 w2=2 0.0 2023-02-04 18:03:00
1 2023-06-06 18:00:00 rrr = s/p y WW = 77 w1=7 w2=7 0.0 2023-06-06 17:59:00
1 2023-08-03 18:00:00 rrr = s/p y WW = 71 w1=7 w2=2 0.0 2023-08-03 18:18:00
1 2023-08-09 12:00:00 rrr = s/p y WW = 68 w1=7 w2=2 0.0 2023-08-09 12:11:00
1 2023-08-09 18:00:00 rrr = trazas y WW = 10 w1=4 w2=4 0.0 2023-08-09 18:00:00
1 2023-08-21 12:00:00 rrr = s/p y WW = 73 w1=4 w2=4 0.0 2023-08-21 12:12:00
1 2023-08-23 18:00:00 rrr = 1.0 y WW = 2 w1=2 w2=2 1.0 2023-08-23 19:09:00
1 2023-10-27 12:00:00 rrr = 1.0 y WW = 10 w1=2 w2=2 1.0 2023-10-27 11:43:00
1 2018-03-06 21:00:00 ff < 19kt y ((ww >= 31 y ww <= 35) o (ww == 37 o ww == 39 o ww >= 98))) 2018-03-07 12:58:00
1 2018-05-24 15:00:00 ff < 19kt y ((ww >= 31 y ww <= 35) o (ww == 37 o ww == 39 o ww >= 98))) 2018-05-26 18:48:00
1 2020-07-29 21:00:00 ff < 19kt y ((ww >= 31 y ww <= 35) o (ww == 37 o ww == 39 o ww >= 98))) 2020-07-29 21:06:00
1 2020-10-11 03:00:00 ff < 19kt y ((ww >= 31 y ww <= 35) o (ww == 37 o ww == 39 o ww >= 98))) 2020-10-11 02:58:00
1 2021-04-29 09:00:00 ff < 19kt y ((ww >= 31 y ww <= 35) o (ww == 37 o ww == 39 o ww >= 98))) 2021-04-29 08:46:00
1 2022-02-18 09:00:00 ff < 19kt y ((ww >= 31 y ww <= 35) o (ww == 37 o ww == 39 o ww >= 98))) 2022-02-18 09:24:00
1 2022-03-16 00:00:00 ff < 19kt y ((ww >= 31 y ww <= 35) o (ww == 37 o ww == 39 o ww >= 98))) 2022-03-16 00:12:00
1 2022-03-28 12:00:00 ff < 19kt y ((ww >= 31 y ww <= 35) o (ww == 37 o ww == 39 o ww >= 98))) 2022-03-28 14:38:00
1 2022-03-28 15:00:00 ff < 19kt y ((ww >= 31 y ww <= 35) o (ww == 37 o ww == 39 o ww >= 98))) 2022-03-28 15:22:00
1 2022-03-28 18:00:00 ff < 19kt y ((ww >= 31 y ww <= 35) o (ww == 37 o ww == 39 o ww >= 98))) 2022-03-28 18:39:00
1 2022-03-28 21:00:00 ff < 19kt y ((ww >= 31 y ww <= 35) o (ww == 37 o ww == 39 o ww >= 98))) 2022-03-28 21:44:00
1 2022-04-21 21:00:00 ff < 19kt y ((ww >= 31 y ww <= 35) o (ww == 37 o ww == 39 o ww >= 98))) 2022-04-21 21:04:00
1 2022-04-22 03:00:00 ff < 19kt y ((ww >= 31 y ww <= 35) o (ww == 37 o ww == 39 o ww >= 98))) 2022-04-22 09:28:00
1 2022-04-26 15:00:00 ff < 19kt y ((ww >= 31 y ww <= 35) o (ww == 37 o ww == 39 o ww >= 98))) 2022-04-26 15:10:00
1 2022-04-26 18:00:00 ff < 19kt y ((ww >= 31 y ww <= 35) o (ww == 37 o ww == 39 o ww >= 98))) 2022-04-26 18:40:00
1 2022-07-20 18:00:00 ff < 19kt y ((ww >= 31 y ww <= 35) o (ww == 37 o ww == 39 o ww >= 98))) 2022-07-20 18:06:00
1 2022-07-20 21:00:00 ff < 19kt y ((ww >= 31 y ww <= 35) o (ww == 37 o ww == 39 o ww >= 98))) 2022-07-20 21:04:00
1 2022-07-21 00:00:00 ff < 19kt y ((ww >= 31 y ww <= 35) o (ww == 37 o ww == 39 o ww >= 98))) 2022-07-21 00:20:00
1 2022-07-21 03:00:00 ff < 19kt y ((ww >= 31 y ww <= 35) o (ww == 37 o ww == 39 o ww >= 98))) 2022-07-21 02:54:00
1 2022-07-30 09:00:00 ff < 19kt y ((ww >= 31 y ww <= 35) o (ww == 37 o ww == 39 o ww >= 98))) 2022-07-30 10:10:00
1 2022-08-27 03:00:00 ff < 19kt y ((ww >= 31 y ww <= 35) o (ww == 37 o ww == 39 o ww >= 98))) 2022-08-27 03:08:00
1 2023-07-31 00:00:00 ff < 19kt y ((ww >= 31 y ww <= 35) o (ww == 37 o ww == 39 o ww >= 98))) 2023-07-31 00:13:00
1 2023-08-02 21:00:00 ff < 19kt y ((ww >= 31 y ww <= 35) o (ww == 37 o ww == 39 o ww >= 98))) 2023-08-02 21:07:00
1 2018-04-29 09:00:00 ts < -2.0 y ((ww >= 50 y ww <= 55) o (ww >= 58 y ww <= 65) o (ww >= 80 y $ww <= 82)) 60 2018-04-29 10:50:00
1 2018-04-29 15:00:00 ts < -2.0 y ((ww >= 50 y ww <= 55) o (ww >= 58 y ww <= 65) o (ww >= 80 y $ww <= 82)) 50 2018-04-30 14:38:00
1 2018-05-10 09:00:00 ts < -2.0 y ((ww >= 50 y ww <= 55) o (ww >= 58 y ww <= 65) o (ww >= 80 y $ww <= 82)) 53 2018-05-13 17:34:00
1 2018-07-04 09:00:00 ts < -2.0 y ((ww >= 50 y ww <= 55) o (ww >= 58 y ww <= 65) o (ww >= 80 y $ww <= 82)) 51 2018-07-04 17:40:00
1 2020-05-04 09:00:00 ts < -2.0 y ((ww >= 50 y ww <= 55) o (ww >= 58 y ww <= 65) o (ww >= 80 y $ww <= 82)) 51 2020-05-04 09:01:00
1 2020-05-19 12:00:00 ts < -2.0 y ((ww >= 50 y ww <= 55) o (ww >= 58 y ww <= 65) o (ww >= 80 y $ww <= 82)) 50 2020-05-19 11:49:00
1 2020-05-25 21:00:00 ts < -2.0 y ((ww >= 50 y ww <= 55) o (ww >= 58 y ww <= 65) o (ww >= 80 y $ww <= 82)) 50 2020-05-25 20:55:00
1 2020-06-14 06:00:00 ts < -2.0 y ((ww >= 50 y ww <= 55) o (ww >= 58 y ww <= 65) o (ww >= 80 y $ww <= 82)) 50 2020-06-14 05:46:00
1 2020-07-06 15:00:00 ts < -2.0 y ((ww >= 50 y ww <= 55) o (ww >= 58 y ww <= 65) o (ww >= 80 y $ww <= 82)) 50 2020-07-06 14:51:00
1 2021-06-15 18:00:00 ts < -2.0 y ((ww >= 50 y ww <= 55) o (ww >= 58 y ww <= 65) o (ww >= 80 y $ww <= 82)) 50 2021-06-15 17:50:00
1 2021-07-11 06:00:00 ts < -2.0 y ((ww >= 50 y ww <= 55) o (ww >= 58 y ww <= 65) o (ww >= 80 y $ww <= 82)) 50 2021-07-11 05:39:00
1 2021-07-15 21:00:00 ts < -2.0 y ((ww >= 50 y ww <= 55) o (ww >= 58 y ww <= 65) o (ww >= 80 y $ww <= 82)) 50 2021-07-15 20:54:00
1 2021-07-18 12:00:00 ts < -2.0 y ((ww >= 50 y ww <= 55) o (ww >= 58 y ww <= 65) o (ww >= 80 y $ww <= 82)) 51 2021-07-18 12:02:00
1 2021-07-28 00:00:00 ts < -2.0 y ((ww >= 50 y ww <= 55) o (ww >= 58 y ww <= 65) o (ww >= 80 y $ww <= 82)) 50 2021-07-27 23:47:00
1 2021-07-28 03:00:00 ts < -2.0 y ((ww >= 50 y ww <= 55) o (ww >= 58 y ww <= 65) o (ww >= 80 y $ww <= 82)) 50 2021-07-28 02:42:00
1 2021-07-28 06:00:00 ts < -2.0 y ((ww >= 50 y ww <= 55) o (ww >= 58 y ww <= 65) o (ww >= 80 y $ww <= 82)) 50 2021-07-28 05:58:00
1 2021-07-31 00:00:00 ts < -2.0 y ((ww >= 50 y ww <= 55) o (ww >= 58 y ww <= 65) o (ww >= 80 y $ww <= 82)) 51 2021-07-31 00:01:00
1 2021-07-31 06:00:00 ts < -2.0 y ((ww >= 50 y ww <= 55) o (ww >= 58 y ww <= 65) o (ww >= 80 y $ww <= 82)) 53 2021-07-31 05:40:00
1 2021-08-07 09:00:00 ts < -5.0 y ( (ww >= 68 y $ww <= 69) o (ww >= 83 y ww <= 84)) 68 2021-08-07 08:43:00
1 2021-08-14 09:00:00 ts < -5.0 y ( (ww >= 68 y $ww <= 69) o (ww >= 83 y ww <= 84)) 68 2021-08-14 09:01:00
1 2021-08-24 00:00:00 ts < -2.0 y ((ww >= 50 y ww <= 55) o (ww >= 58 y ww <= 65) o (ww >= 80 y $ww <= 82)) 51 2021-08-23 23:55:00
1 2021-08-24 06:00:00 ts < -2.0 y ((ww >= 50 y ww <= 55) o (ww >= 58 y ww <= 65) o (ww >= 80 y $ww <= 82)) 51 2021-08-24 05:43:00
1 2021-08-27 03:00:00 ts < -2.0 y ((ww >= 50 y ww <= 55) o (ww >= 58 y ww <= 65) o (ww >= 80 y $ww <= 82)) 50 2021-08-27 03:00:00
1 2021-09-06 00:00:00 ts < -2.0 y ((ww >= 50 y ww <= 55) o (ww >= 58 y ww <= 65) o (ww >= 80 y $ww <= 82)) 58 2021-09-05 23:42:00
1 2021-09-11 09:00:00 ts < -2.0 y ((ww >= 50 y ww <= 55) o (ww >= 58 y ww <= 65) o (ww >= 80 y $ww <= 82)) 51 2021-09-11 08:48:00
1 2021-09-16 06:00:00 ts < -2.0 y ((ww >= 50 y ww <= 55) o (ww >= 58 y ww <= 65) o (ww >= 80 y $ww <= 82)) 51 2021-09-16 05:42:00
1 2021-09-21 00:00:00 ts < -2.0 y ((ww >= 50 y ww <= 55) o (ww >= 58 y ww <= 65) o (ww >= 80 y $ww <= 82)) 51 2021-09-20 23:51:00
1 2021-09-21 03:00:00 ts < -2.0 y ((ww >= 50 y ww <= 55) o (ww >= 58 y ww <= 65) o (ww >= 80 y $ww <= 82)) 51 2021-09-21 02:57:00
1 2022-04-29 06:00:00 ts < -5.0 y ( (ww >= 68 y $ww <= 69) o (ww >= 83 y ww <= 84)) 68 2022-04-29 09:08:00
1 2022-05-26 00:00:00 ts < -2.0 y ((ww >= 50 y ww <= 55) o (ww >= 58 y ww <= 65) o (ww >= 80 y $ww <= 82)) 51 2022-05-26 00:31:00
1 2022-06-01 00:00:00 ts < -2.0 y ((ww >= 50 y ww <= 55) o (ww >= 58 y ww <= 65) o (ww >= 80 y $ww <= 82)) 50 2022-06-01 00:51:00
1 2022-06-02 06:00:00 ts < -2.0 y ((ww >= 50 y ww <= 55) o (ww >= 58 y ww <= 65) o (ww >= 80 y $ww <= 82)) 50 2022-06-02 06:04:00
1 2022-06-17 03:00:00 ts < -5.0 y ( (ww >= 68 y $ww <= 69) o (ww >= 83 y ww <= 84)) 68 2022-06-17 02:57:00
1 2023-04-30 21:00:00 ts < -2.0 y ((ww >= 50 y ww <= 55) o (ww >= 58 y ww <= 65) o (ww >= 80 y $ww <= 82)) 50 2023-04-30 20:49:00
1 2023-05-06 21:00:00 ts < -5.0 y ( (ww >= 68 y $ww <= 69) o (ww >= 83 y ww <= 84)) 68 2023-05-06 20:49:00
1 2023-07-21 00:00:00 ts < -2.0 y ((ww >= 50 y ww <= 55) o (ww >= 58 y ww <= 65) o (ww >= 80 y $ww <= 82)) 60 2023-07-20 23:42:00
1 2023-07-21 03:00:00 ts < -2.0 y ((ww >= 50 y ww <= 55) o (ww >= 58 y ww <= 65) o (ww >= 80 y $ww <= 82)) 60 2023-07-21 02:45:00
Errores del Nivel 567
Nivel Fecha del Dato Descripción Información Error Fecha Ingreso
2 2018-05-20 03:00:00 Variación Tri-horaria de Intensidad del viento fuera de rango (3 hora Antes) 101.40000152588 - 8 2018-05-22 21:33:00
2 2018-05-20 06:00:00 Variación Tri-horaria de Intensidad del viento fuera de rango (3 hora Antes) 5 - 101.40000152588 2018-05-22 21:36:00
2 2022-05-21 15:00:00 Variación Tri-horaria de Intensidad del viento fuera de rango (3 hora Antes) 113 - 1 2022-05-21 19:20:00
2 2022-05-21 18:00:00 Variación Tri-horaria de Intensidad del viento fuera de rango (3 hora Antes) 13 - 113 2022-05-21 19:22:00
2 2018-02-01 12:00:00 Temperatura -0.1 del 01-02-2018 09:00, Menor que la Mínima 0.1 01-02-2018 12:00 -0.1 -- 0.1 2018-02-06 18:31:00
2 2021-02-02 12:00:00 Temperatura 1.0 del 02-02-2021 09:00, Menor que la Mínima 1.1 02-02-2021 12:00 1.0 -- 1.1 2021-02-02 11:51:00
2 2021-04-18 12:00:00 Temperatura -0.9 del 18-04-2021 03:00, Menor que la Mínima 0.1 18-04-2021 12:00 -0.9 -- 0.1 2021-04-18 11:50:00
2 2021-07-15 12:00:00 Temperatura -9.0 del 15-07-2021 03:00, Menor que la Mínima -5.5 15-07-2021 12:00 -9.0 -- -5.5 2021-07-15 11:58:00
2 2021-09-08 12:00:00 Temperatura -0.8 del 08-09-2021 06:00, Menor que la Mínima -0.7 08-09-2021 12:00 -0.8 -- -0.7 2021-09-08 11:45:00
2 2021-09-11 12:00:00 Temperatura -2.3 del 11-09-2021 09:00, Menor que la Mínima -1.9 11-09-2021 12:00 -2.3 -- -1.9 2021-09-11 11:48:00
2 2021-09-21 12:00:00 Temperatura -3.2 del 21-09-2021 06:00, Menor que la Mínima -3.1 21-09-2021 12:00 -3.2 -- -3.1 2021-09-21 11:48:00
2 2021-10-10 12:00:00 Temperatura -0.6 del 10-10-2021 06:00, Menor que la Mínima -0.5 10-10-2021 12:00 -0.6 -- -0.5 2021-10-10 12:04:00
2 2021-10-25 12:00:00 Temperatura -4.1 del 25-10-2021 03:00, Menor que la Mínima -1.4 25-10-2021 12:00 -4.1 -- -1.4 2021-10-25 11:47:00
2 2021-10-29 12:00:00 Temperatura 0.5 del 29-10-2021 03:00, Menor que la Mínima 0.8 29-10-2021 12:00 0.5 -- 0.8 2021-10-29 11:55:00
2 2021-12-17 12:00:00 Temperatura 0.0 del 17-12-2021 06:00, Menor que la Mínima 1.5 17-12-2021 12:00 0.0 -- 1.5 2021-12-17 11:52:00
2 2022-01-06 12:00:00 Temperatura 1.0 del 06-01-2022 09:00, Menor que la Mínima 1.1 06-01-2022 12:00 1.0 -- 1.1 2022-01-06 12:06:00
2 2022-02-09 12:00:00 Temperatura 1.3 del 09-02-2022 09:00, Menor que la Mínima 1.4 09-02-2022 12:00 1.3 -- 1.4 2022-02-09 11:39:00
2 2022-05-19 12:00:00 Temperatura -0.6 del 19-05-2022 03:00, Menor que la Mínima -0.5 19-05-2022 12:00 -0.6 -- -0.5 2022-05-19 11:54:00
2 2022-08-18 12:00:00 Temperatura -4.1 del 18-08-2022 03:00, Menor que la Mínima -3.2 18-08-2022 12:00 -4.1 -- -3.2 2022-08-18 11:39:00
2 2022-09-23 12:00:00 Temperatura 0.2 del 23-09-2022 06:00, Menor que la Mínima 0.4 23-09-2022 12:00 0.2 -- 0.4 2022-09-23 11:44:00
2 2022-09-28 12:00:00 Temperatura -5.6 del 28-09-2022 03:00, Menor que la Mínima -3.8 28-09-2022 12:00 -5.6 -- -3.8 2022-09-28 11:53:00
2 2022-10-12 12:00:00 Temperatura 0.1 del 12-10-2022 09:00, Menor que la Mínima 0.3 12-10-2022 12:00 0.1 -- 0.3 2022-10-12 11:34:00
2 2023-02-27 12:00:00 Temperatura -1.1 del 27-02-2023 03:00, Menor que la Mínima -0.8 27-02-2023 12:00 -1.1 -- -0.8 2023-02-27 11:43:00
2 2023-04-17 12:00:00 Temperatura -1.4 del 17-04-2023 09:00, Menor que la Mínima -1.1 17-04-2023 12:00 -1.4 -- -1.1 2023-04-17 12:41:00
2 2023-06-17 12:00:00 Temperatura -5.3 del 17-06-2023 06:00, Menor que la Mínima -5.2 17-06-2023 12:00 -5.3 -- -5.2 2023-06-17 12:13:00
2 2023-07-14 12:00:00 Temperatura -0.6 del 14-07-2023 03:00, Menor que la Mínima -0.1 14-07-2023 12:00 -0.6 -- -0.1 2023-07-14 11:57:00
2 2023-08-07 12:00:00 Temperatura -6.4 del 07-08-2023 09:00, Menor que la Mínima -6.0 07-08-2023 12:00 -6.4 -- -6.0 2023-08-07 11:58:00
2 2023-09-11 12:00:00 Temperatura -5.3 del 11-09-2023 03:00, Menor que la Mínima -3.4 11-09-2023 12:00 -5.3 -- -3.4 2023-09-11 12:07:00
2 2021-04-09 00:00:00 Temperatura 1.2 del 08-04-2021 18:00, Mayor que la Máxima 1.0 09-04-2021 00:00 1.2 -- 1.0 2021-04-08 23:42:00
2 2021-05-03 00:00:00 Temperatura -7.2 del 02-05-2021 18:00, Mayor que la Máxima -7.4 03-05-2021 00:00 -7.2 -- -7.4 2021-05-02 23:54:00
2 2021-10-07 00:00:00 Temperatura -0.2 del 06-10-2021 15:00, Mayor que la Máxima -0.8 07-10-2021 00:00 -0.2 -- -0.8 2021-10-07 00:01:00
2 2021-10-09 00:00:00 Temperatura 0.2 del 08-10-2021 15:00, Mayor que la Máxima 0.1 09-10-2021 00:00 0.2 -- 0.1 2021-10-08 23:42:00
2 2021-11-22 00:00:00 Temperatura 0.2 del 21-11-2021 18:00, Mayor que la Máxima 0.1 22-11-2021 00:00 0.2 -- 0.1 2021-11-22 00:14:00
2 2021-11-24 00:00:00 Temperatura 1.2 del 23-11-2021 18:00, Mayor que la Máxima 1.0 24-11-2021 00:00 1.2 -- 1.0 2021-11-24 00:23:00
2 2021-11-25 00:00:00 Temperatura 0.1 del 24-11-2021 21:00, Mayor que la Máxima 0.0 25-11-2021 00:00 0.1 -- 0.0 2021-11-25 00:14:00
2 2021-12-22 00:00:00 Temperatura 3.1 del 21-12-2021 18:00, Mayor que la Máxima 2.3 22-12-2021 00:00 3.1 -- 2.3 2021-12-22 00:12:00
2 2022-01-28 00:00:00 Temperatura 4.5 del 27-01-2022 21:00, Mayor que la Máxima 3.5 28-01-2022 00:00 4.5 -- 3.5 2022-01-28 00:00:00
2 2022-02-03 00:00:00 Temperatura 2.3 del 02-02-2022 15:00, Mayor que la Máxima 2.0 03-02-2022 00:00 2.3 -- 2.0 2022-02-02 23:40:00
2 2022-02-28 00:00:00 Temperatura 2.5 del 27-02-2022 21:00, Mayor que la Máxima 1.7 28-02-2022 00:00 2.5 -- 1.7 2022-02-27 23:50:00
2 2022-03-18 00:00:00 Temperatura 1.4 del 17-03-2022 15:00, Mayor que la Máxima -0.1 18-03-2022 00:00 1.4 -- -0.1 2022-03-18 02:44:00
2 2022-04-18 00:00:00 Temperatura 0.6 del 17-04-2022 15:00, Mayor que la Máxima 0.1 18-04-2022 00:00 0.6 -- 0.1 2022-04-17 23:41:00
2 2022-04-22 00:00:00 Temperatura -0.2 del 21-04-2022 15:00, Mayor que la Máxima -1.9 22-04-2022 00:00 -0.2 -- -1.9 2022-04-22 00:10:00
2 2022-04-28 00:00:00 Temperatura -2.1 del 27-04-2022 21:00, Mayor que la Máxima -2.4 28-04-2022 00:00 -2.1 -- -2.4 2022-04-28 00:27:00
2 2022-06-16 00:00:00 Temperatura 0.4 del 15-06-2022 15:00, Mayor que la Máxima 0.2 16-06-2022 00:00 0.4 -- 0.2 2022-06-16 00:21:00
2 2022-07-05 00:00:00 Temperatura 0.1 del 04-07-2022 15:00, Mayor que la Máxima 0.0 05-07-2022 00:00 0.1 -- 0.0 2022-07-05 00:28:00
2 2022-08-23 00:00:00 Temperatura 0.2 del 22-08-2022 21:00, Mayor que la Máxima 0.0 23-08-2022 00:00 0.2 -- 0.0 2022-08-23 04:13:00
2 2022-09-23 00:00:00 Temperatura 0.9 del 22-09-2022 21:00, Mayor que la Máxima 0.4 23-09-2022 00:00 0.9 -- 0.4 2022-09-23 00:10:00
2 2022-09-25 00:00:00 Temperatura -0.6 del 24-09-2022 15:00, Mayor que la Máxima -1.8 25-09-2022 00:00 -0.6 -- -1.8 2022-09-25 03:07:00
2 2022-09-26 00:00:00 Temperatura -1.3 del 25-09-2022 18:00, Mayor que la Máxima -1.4 26-09-2022 00:00 -1.3 -- -1.4 2022-09-26 00:37:00
2 2022-10-13 00:00:00 Temperatura -1.6 del 12-10-2022 15:00, Mayor que la Máxima -2.9 13-10-2022 00:00 -1.6 -- -2.9 2022-10-13 01:17:00
2 2022-11-30 00:00:00 Temperatura 1.7 del 29-11-2022 15:00, Mayor que la Máxima 1.2 30-11-2022 00:00 1.7 -- 1.2 2022-11-30 00:04:00
2 2022-12-06 00:00:00 Temperatura 0.3 del 05-12-2022 21:00, Mayor que la Máxima 0.2 06-12-2022 00:00 0.3 -- 0.2 2022-12-06 00:35:00
2 2022-12-07 00:00:00 Temperatura 2.4 del 06-12-2022 18:00, Mayor que la Máxima 0.5 07-12-2022 00:00 2.4 -- 0.5 2022-12-07 00:08:00
2 2023-01-16 00:00:00 Temperatura 5.0 del 15-01-2023 15:00, Mayor que la Máxima 2.8 16-01-2023 00:00 5.0 -- 2.8 2023-01-16 00:41:00
2 2023-03-01 00:00:00 Temperatura 3.3 del 28-02-2023 18:00, Mayor que la Máxima 2.9 01-03-2023 00:00 3.3 -- 2.9 2023-02-28 23:57:00
2 2023-05-12 00:00:00 Temperatura 1.9 del 11-05-2023 15:00, Mayor que la Máxima 1.5 12-05-2023 00:00 1.9 -- 1.5 2023-05-12 00:11:00
2 2023-07-15 00:00:00 Temperatura 0.1 del 14-07-2023 15:00, Mayor que la Máxima -0.6 15-07-2023 00:00 0.1 -- -0.6 2023-07-14 23:46:00
2 2023-07-30 00:00:00 Temperatura -6.9 del 29-07-2023 15:00, Mayor que la Máxima -7.0 30-07-2023 00:00 -6.9 -- -7.0 2023-07-29 23:55:00
2 2023-10-06 00:00:00 Temperatura 0.8 del 05-10-2023 18:00, Mayor que la Máxima -0.6 06-10-2023 00:00 0.8 -- -0.6 2023-10-06 01:36:00
2 2023-11-06 00:00:00 Temperatura 0.9 del 05-11-2023 15:00, Mayor que la Máxima -0.8 06-11-2023 00:00 0.9 -- -0.8 2023-11-06 00:37:00
Errores del Nivel 60
Informe generado el 05-03-2024 10:45
Requerimiento: RE6001